This demonstration page uses our WeatherBlox Daily Observations layout. Learn more.

Left ArrowRight Arrow

Hourly Observations for September 22, 2021

Temp ( °F °C ) Dew Point ( °F °C ) Humidity (%) Winds ( mph kmh ) Pressure ( in mb ) Visibility ( mi km ) Precip ( " mm )
12:15 am 00:15 Cloudy 72 22 68 20 88 88 ESE 3 6 30.17 1022 10 16 N/A
12:35 am 00:35 Cloudy 72 22 68 20 88 88 SE 5 7 30.16 1021 10 16 N/A
12:55 am 00:55 Cloudy 72 22 68 20 88 88 SSE 6 9 30.16 1021 10 16 N/A
1:15 am 01:15 Cloudy 72 22 70 21 94 94 SSE 8 13 30.15 1021 10 16 N/A
1:35 am 01:35 Cloudy 72 22 70 21 94 94 SE 7 11 30.14 1021 10 16 N/A
1:55 am 01:55 Cloudy 72 22 70 21 94 94 SE 7 11 30.14 1021 10 16 N/A
2:15 am 02:15 Cloudy 72 22 70 21 94 94 SE 3 6 30.13 1020 10 16 N/A
2:35 am 02:35 Cloudy 72 22 70 21 94 94 SE 6 9 30.12 1020 10 16 N/A
2:55 am 02:55 Cloudy 72 22 70 21 94 94 SE 6 9 30.11 1020 10 16 N/A
3:15 am 03:15 Cloudy 72 22 70 21 94 94 ESE 3 6 30.10 1019 10 16 N/A
3:35 am 03:35 Cloudy 72 22 70 21 94 94 ESE 6 9 30.09 1019 10 16 N/A
3:55 am 03:55 Cloudy 72 22 70 21 94 94 SE 5 7 30.09 1019 10 16 N/A
4:15 am 04:15 Cloudy 72 22 70 21 94 94 SE 7 11 30.08 1019 10 16 N/A
4:35 am 04:35 Cloudy 72 22 70 21 94 94 SSE 6 9 30.07 1018 10 16 N/A
4:55 am 04:55 Cloudy 72 22 70 21 94 94 SE 9 15 30.07 1018 10 16 N/A
5:15 am 05:15 Cloudy 72 22 72 22 100 100 SSE 9 15 30.07 1018 10 16 N/A
5:35 am 05:35 Cloudy with Light Rain 72 22 72 22 100 100 SE 9 15 30.07 1018 10 16 N/A
5:55 am 05:55 Cloudy with Light Rain 72 22 72 22 100 100 SE 8 13 30.06 1018 10 16 N/A
6:15 am 06:15 Cloudy with Light Rain 72 22 72 22 100 100 SE 6 9 30.05 1018 10 16 N/A
6:35 am 06:35 Cloudy 72 22 72 22 100 100 SE 7 11 30.05 1018 10 16 N/A
6:55 am 06:55 Cloudy with Light Rain 72 22 72 22 100 100 SSE 12 19 30.04 1017 10 16 N/A
7:15 am 07:15 Cloudy with Light Rain 72 22 72 22 100 100 SSE 5 7 30.04 1017 10 16 N/A
7:35 am 07:35 Cloudy with Rain 72 22 72 22 100 100 SE 9 15 30.04 1017 7 11 N/A
7:55 am 07:55 Cloudy with Rain 72 22 72 22 100 100 SE 10 17 30.03 1017 5 8 N/A
8:15 am 08:15 Cloudy with Light Rain 72 22 72 22 100 100 SSE 9 15 30.03 1017 7 11 N/A
8:35 am 08:35 Cloudy with Light Rain 72 22 72 22 100 100 SSE 9 15 30.02 1017 7 11 N/A
8:55 am 08:55 Cloudy with Drizzle 73 23 73 23 100 100 SSE 12 19 30.01 1016 10 16 N/A
9:15 am 09:15 Cloudy with Drizzle 73 23 73 23 100 100 SSE 10 17 30.01 1016 10 16 N/A
9:35 am 09:35 Cloudy 73 23 73 23 100 100 SE 12 19 30.00 1016 10 16 N/A
9:55 am 09:55 Cloudy 75 24 73 23 94 94 SE 12 19 30.00 1016 10 16 N/A
10:15 am 10:15 Cloudy 77 25 73 23 89 89 SSE 13 20 29.98 1015 10 16 N/A
10:35 am 10:35 Cloudy 77 25 73 23 89 89 SSE 13 20 29.97 1015 10 16 N/A
10:55 am 10:55 Cloudy 77 25 73 23 89 89 S 18 30 29.97 1015 10 16 N/A
11:15 am 11:15 Cloudy with Drizzle 77 25 73 23 89 89 SSE 12 19 29.96 1015 10 16 N/A
11:35 am 11:35 Cloudy with Light Rain 77 25 73 23 89 89 SSE 13 20 29.95 1014 10 16 N/A
11:55 am 11:55 Cloudy with Light Rain 75 24 72 22 89 89 S 17 28 29.96 1014 7 11 N/A
12:15 pm 12:15 Cloudy with Heavy Rain 73 23 72 22 94 94 SSE 15 24 29.95 1014 3 5 N/A
12:35 pm 12:35 Cloudy with Light Rain 73 23 72 22 94 94 SSE 14 22 29.95 1014 5 8 N/A
1:15 pm 13:15 Cloudy with Light Rain 73 23 72 22 94 94 SSE 14 22 29.93 1013 7 11 N/A
1:35 pm 13:35 Cloudy with Rain 75 24 73 23 94 94 SSE 10 17 29.92 1013 7 11 N/A
1:55 pm 13:55 Cloudy 75 24 73 23 94 94 SSE 12 19 29.90 1012 7 11 N/A
2:15 pm 14:15 Cloudy 77 25 73 23 89 89 SSE 10 17 29.88 1012 10 16 N/A
2:35 pm 14:35 Cloudy 79 26 73 23 84 84 SSE 12 19 29.87 1012 10 16 N/A
2:55 pm 14:55 Cloudy 79 26 73 23 84 84 SSE 13 20 29.86 1011 10 16 N/A
3:15 pm 15:15 Cloudy 79 26 73 23 84 84 S 18 30 29.85 1011 7 11 N/A
3:35 pm 15:35 Cloudy 79 26 73 23 84 84 SSE 20 31 29.84 1011 10 16 N/A
3:55 pm 15:55 Cloudy with Rain 77 25 73 23 89 89 SSE 17 28 29.84 1011 7 11 N/A
4:15 pm 16:15 Cloudy with Light Rain 75 24 72 22 89 89 SSE 10 17 29.85 1011 4 6 N/A
4:35 pm 16:35 Cloudy 75 24 73 23 94 94 SSE 7 11 29.84 1010 10 16 N/A
4:55 pm 16:55 Cloudy 75 24 72 22 89 89 SSE 13 20 29.84 1010 10 16 N/A
5:15 pm 17:15 Cloudy 75 24 72 22 89 89 SSE 10 17 29.84 1010 10 16 N/A
5:35 pm 17:35 Cloudy with Nearby Thunderstorms 75 24 72 22 89 89 SE 9 15 29.82 1010 10 16 N/A
5:55 pm 17:55 Cloudy with Rain 75 24 72 22 89 89 SSE 21 33 29.82 1010 10 16 N/A
6:15 pm 18:15 Cloudy with Light Rain 75 24 73 23 94 94 S 18 30 29.82 1010 10 16 N/A
6:35 pm 18:35 Cloudy 73 23 72 22 94 94 SSE 16 26 29.82 1010 10 16 N/A
6:55 pm 18:55 Cloudy 73 23 72 22 94 94 S 16 26 29.83 1010 10 16 N/A
7:15 pm 19:15 Cloudy 73 23 72 22 94 94 S 16 26 29.83 1010 10 16 N/A
7:35 pm 19:35 Cloudy 73 23 72 22 94 94 SSE 14 22 29.83 1010 10 16 N/A
7:55 pm 19:55 Cloudy 73 23 72 22 94 94 SSE 13 20 29.84 1010 10 16 N/A
8:15 pm 20:15 Cloudy 73 23 72 22 94 94 SSE 13 20 29.84 1010 10 16 N/A
8:35 pm 20:35 Cloudy 73 23 72 22 94 94 SSE 9 15 29.83 1010 10 16 N/A
8:55 pm 20:55 Cloudy 73 23 72 22 94 94 SSE 7 11 29.84 1010 10 16 N/A
9:15 pm 21:15 Cloudy 73 23 72 22 94 94 SSE 12 19 29.84 1010 10 16 N/A
9:35 pm 21:35 Cloudy 73 23 72 22 94 94 SSE 13 20 29.84 1010 10 16 N/A
9:55 pm 21:55 Cloudy 73 23 72 22 94 94 SSE 12 19 29.84 1010 10 16 N/A
10:15 pm 22:15 Cloudy 73 23 72 22 94 94 SSE 13 20 29.84 1010 10 16 N/A
10:35 pm 22:35 Cloudy 73 23 72 22 94 94 SSE 14 22 29.83 1010 10 16 N/A
10:55 pm 22:55 Cloudy with Light Rain 73 23 72 22 94 94 S 12 19 29.83 1010 10 16 N/A
11:15 pm 23:15 Cloudy with Rain 72 22 72 22 100 100 SSE 14 22 29.82 1010 4 6 N/A
11:35 pm 23:35 Cloudy 73 23 72 22 94 94 SSE 15 24 29.82 1010 10 16 N/A
11:55 pm 23:55 Cloudy 73 23 73 23 100 100 SSE 16 26 29.80 1009 10 16 N/A

Powered by AerisWeather